QB50P1

Last updated on Mon Sep 21 2026 00:03:14 GMT+0000 (Coordinated Universal Time)

1 40025U 14033R 26263.27745472 .00004932 00000+0 23585-3 0 9992 2 40025 98.0973 281.1894 0006913 256.8399 103.2062 15.19505442667462
UTC large
Height (km)
Speed (km/s)
/
Latitude / Longitude
Inclination (degrees)
Orbital Period (minutes)
Azimuth
Elevation
Range (km)
Doppler Factor

Next 0 passes for location: London (51.5072 / 0.1276)

No passes found over London.
QB50P1